sat.trackr.live / text

‹ back to catalog

STARLINK-33772

NORAD 63656 · 2025-083Y

PAYLOAD ACTIVE UNKNOWN

§ Identity

Operator
Country
US
Launch date
2025-04-25
Launch site
AFETR
Launch vehicle
Mass (kg)
RCS (m²)

Purposes: comms

External: N2YO · Heavens-Above · Gunter

§ Orbital elements

Epoch: 2026-05-25T02:28:52.849344Z

Period
94.27 min
Inclination
42.9944°
Eccentricity
0.0000697
Mean motion
15.27607994 rev/d
Perigee alt
482.5 km
Apogee alt
483.4 km
Semi-major
6,861.1 km
B*
1.4482e-3
RAAN
293.6350°
Arg perigee
338.1060°
Mean anomaly
21.9761°
Rev number
6,178

§ Raw data

STARLINK-337721 63656U 25083Y   26145.10338946  .00039838  00000+0  14482-2 0  99972 63656  42.9944 293.6350 0000697 338.1060  21.9761 15.27607994 61789

JSON: /api/v1/satellites/63656 · /tle

For live sub-satellite position, see the globe view (requires WebGL).

§ Visibility from observer

Set your observer location to see the next 7 days of passes ≥ 10°. The values pass through the URL so the page stays shareable.

No JS? Fill the form by hand. The geolocation button needs JavaScript.